SCOUT G-1 DEB

Satellite information

Favourite Embed

Satellite Type and Status

DEBRISIN ORBIT

Key statistics

Satellite SCOUT G-1 DEB at a glance.

Uptime

14523

Days in orbit

Revolutions

≈ 14.1

Per day

Orbit

LEO

Low Earth Orbit

Inclination

89.9

Latest

Satellite identification and parameters

Extended collection of information and parameters for SCOUT G-1 DEB.

Object identification

Identified? True

Debris? True

Object name: SCOUT G-1 DEB

International designator: 1985-066D

Object number (NORAD): 15950

Object ID (CCSDS): 15950

Country: UNITED STATES OF AMERICA (US)

Current information (Y/N): Y

RCS size: SMALL

Orbital parameters

Period: 101.989 minutes

Inclination: 89.8508 deg

SMA: 7230.955 km

Apoapsis: 917.039 km

Periapsis: 788.601 km

RAAN: 301.1135 deg

Eccentricy: 0.0088811

Argument of periapsis: 79.7319 deg

Mean anomaly: 281.3866 deg

Mean motion: 14.11917356 rev/day

Mean motion (dot): 0.00007851 rev/day2

B* drag term: 0.0041326 1/REarth

Two-line elements (TLE)

Creation date: May 8, 2025, 3:01 a.m.

Reference frame: TEME

Reference center: EARTH

Epoch: May 7, 2025, 4:31 p.m. UTC

TLE line 0: 0 SCOUT G-1 DEB

TLE line 1: 1 15950U 85066D 25127.68864585 .00007851 00000-0 41326-2 0 9991

TLE line 2: 2 15950 89.8508 301.1135 0088811 79.7319 281.3866 14.11917356985752

Live tracking on map

Real-time ground track for satellite SCOUT G-1 DEB.

In-orbit conjunctions

A list of the most updated potential collisions computed for object SCOUT G-1 DEB.

Target Orbit TCA Probability of collision Miss distance Type
CZ-6A DEB LEO 2024-11-22 13:53:05 0.0001881684 558.0 (m) DEBRIS
METEOR 1-14 LEO 2024-11-18 14:50:07 0.0001560188 282.0 (m) PAYLOAD

Associated space launch

The Transit-O series of satellites that closely followed the design of Transit 5C-1 were also called “Oscars” (Oscar is the phonetic alphabet for “O”, i. e., operational). They were also called NNS (Navy Navigation Satellite) or shortened NavSat.

SCOUT G-1 DEB was lifted into orbit during the mission ‘Scout G-1 | Transit-O 24,30’, on board a Scout G-1 space rocket.

The launch took place on Aug. 3, 1985, 3:31 a.m. from Space Launch Complex 5.

For more information about the launch, click the button.

Launch to space Scout G-1 | Transit-O 24,30
Scout G-1 | Transit-O 24,30

Agency: N/A

Status: Launch Successful

Launch date: Aug. 3, 1985, 3:31 a.m. UTC

Rocket: Scout G-1

Launch pad: Space Launch Complex 5

Location: Vandenberg SFB, CA, USA

...

Latest news about this satellite

There are no fresh news available about this satellite. Check back as we update our databases every day.


Newsletter sign-up

Weekly statistics, charts and insights to help you stay on top of the space industry.